Find Starlink 3834

NORAD ID: 52368 Int'l Des: 2022-045 Owner: SPXS Country: US Constellation: starlink operational
LEOCIRCULAR

Live Position

Loading 3D Globe...

About Starlink 3834

Description loading...

Upcoming Passes

Passes for default location (London). Set your location on the main map for personalized predictions.

Altitude History

Loading altitude history...

Two-Line Element Set

1 52368U 22045AP 26105.19548676 -.00000951 00000-0 -41650-4 0 9994
2 52368 53.2179 25.2394 0001467 90.0319 270.0841 15.08837741221425
Epoch: Apr 15, 2026 • Age: 8 hours

Current Status

Altitude 541.7 km
Velocity 7.60 km/s
Sub-Earth Point 35.65°N, 19.56°E
Launch Date Apr 29, 2022
Age 3.9 years
Type internet

Technical Details

Classification Payload
Mass 297.00 kg
Dry Mass 275.00 kg
Total Mass 297.00 kg
Length 0.20 m
Diameter 2.80 m
Span 9.00 m
Shape Box + pan
Manufacturer SPXS
Bus Type Starlink
Phase Status In Orbit
Owner/State SPXS/US

Most Searched